Location: Arrien
(42.8963°N, 1.0429°E)
Time: 14:44:33
(UTC+00:00)

Cosmos 1244 Rocket - Pass Details

Date: 11 December 2025
Orbit: 952 x 998 km, 83.0° (Epoch: 19 January)

Event Time Altitude Azimuth Distance (km) Brightness Sun altitude
Rises 18:25:01 0° 352° (N) 3,699 7.5 -21.8°
Reaches altitude 10° 18:27:34 10° 354° (N) 2,741 6.8 -22.2°
Maximum altitude 18:33:52 83° 82° (E) 984 4.3 -23.4°
Drops below altitude 10° 18:40:02 10° 171° (S) 2,691 6.8 -24.5°
Sets 18:42:31 0° 172° (S) 3,628 7.5 -24.9°
